Regional Weather Roundup
Issued by NWS Grand Forks, ND

Home | Current Version | Previous Version | Graphics & Text | Print | Product List | Glossary On
Versions: 1 2 3 4 5 6 7 8 9 10 11 12 13 14 15 16 17 18 19 20 21 22 23 24 25 26 27 28 29 30 31 32 33 34 35 36 37 38 39 40 41 42 43 44 45 46 47 48 49 50
000
ASUS43 KFGF 280831
RWRFGF
PRAIRIE TO PINES  WEATHER ROUNDUP
NATIONAL WEATHER SERVICE EASTERN NORTH DAKOTA/GRAND FORKS ND
300 AM CDT TUE APR 28 2015

 **SATELLITE DATA USED TO AUGMENT SKY COVER AT AUTOMATED STATIONS**
 *****  WEATHER ACROSS EASTERN NORTH DAKOTA  *****

CITY           SKY/WX    TMP DP  RH WIND       PRES   REMARKS
GRAND FORKS    CLOUDY    43  43 100 NW6       30.26F
GRAND FRKS AFB CLOUDY    45  45 100 N3        30.26S
GRAND FRKS NWS   N/A     39 N/A N/A NW3         N/A
DEVILS LAKE      N/A     37  34  87 CALM      30.27S VSB 3/4
FARGO          RAIN      47  45  93 N13       30.24R FOG
WAHPETON ARPT  CLOUDY    46  39  76 NW9       30.24R
$$

 ***** WEATHER ACROSS CENTRAL AND WESTERN NORTH DAKOTA  *****

CITY           SKY/WX    TMP DP  RH WIND       PRES   REMARKS
BISMARCK       CLEAR     35  33  92 W5        30.31F
MINOT          CLEAR     40  36  86 SW10      30.27F
JAMESTOWN      CLEAR     39  37  92 NW9       30.27S
MINOT AFB      CLEAR     38  38 100 W9        30.26F
GARRISON         N/A     35  33  92 CALM      30.29F
WILLISTON      CLEAR     38  35  89 CALM      30.30S
DICKINSON      CLEAR     32  29  88 W7        30.30F
HETTINGER      CLEAR     29  28  96 W6        30.33F WCI  23
$$

 *****  OTHER AIRPORT OBSERVATIONS IN OUR AREA  *****

CITY           SKY/WX    TMP DP  RH WIND       PRES   REMARKS
WALHALLA       FAIR      36  36 100 CALM      30.26F
GRAFTON AIRPOR FOG       41  41 100 CALM      30.28R VSB<1/4
VALLEY CITY AR CLOUDY    43  43 100 N5        30.27S FOG
CANDO          FAIR      32  32 100 W7        30.27F FOG
CAVALIER APRT  FAIR      36  36 100 NW5       30.27S FOG
GWINNER        CLOUDY    46  46 100 N12       30.27S
ROLLA          NOT AVBL
 ***** THE ABOVE OBSERVATIONS ARE NON NWS ARE NOT QUALITY
       CONTROLLED AND MAY MIS-REPORT RAIN FOR SNOW...
$$

  *****  WEATHER ACROSS NORTHERN MINNESOTA  *****

CITY           SKY/WX    TMP DP  RH WIND       PRES   REMARKS
FLAG ISLAND    CLOUDY    43  39  87 N14       30.24R
WARROAD        CLOUDY    45  39  81 NW9       30.25S
ROSEAU         CLOUDY    45  39  81 N9        30.24S
HALLOCK        FOG       36  36 100 CALM      30.26S VSB<1/4
THF RVR FALLS  CLOUDY    45  43  93 N8        30.25S
BAUDETTE       LGT RAIN  43  41  93 NW8       30.22S
WASKISH        CLOUDY    46  43  87 CALM      30.21S
CROOKSTON      MOCLDY    43  41  93 N7        30.26S
$$
  *****  WEATHER ACROSS CENTRAL AND WEST MINNESOTA  *****

CITY           SKY/WX    TMP DP  RH WIND       PRES   REMARKS
FOSSTON        LGT RAIN  45  43  93 N7        30.24S
BEMIDJI        RAIN      47  44  87 NW8       30.19S
PARK RAPIDS    CLOUDY    52  42  69 NW13      30.17R
ELBOW LAKE     CLOUDY    50  42  72 NW10      30.20R
WADENA         CLOUDY    52  43  71 NW9       30.17S
DETROIT LAKES  DRIZZLE   46  43  87 N9        30.23R
MOORHEAD       LGT RAIN  46  45  93 N9        30.25R
FERGUS FALLS   CLOUDY    48  39  71 CALM      30.22S
MORRIS MN      MOCLDY    50  41  71 NW13      30.19S
STAPLES        CLOUDY    46  36  66 NW6       30.16S
$$
  *****  WEATHER ELSEWHERE ACROSS MINNESOTA  *****

CITY           SKY/WX    TMP DP  RH WIND       PRES   REMARKS
DULUTH         CLEAR     44  27  51 CALM      30.14S
INTRNTL FALLS  LGT RAIN  49  44  83 N13       30.17S
ELY            PTCLDY    30  27  86 CALM      30.14S
CLOQUET        CLEAR     36  30  80 CALM      30.14S
WHEATON        CLOUDY    48  39  71 NW9       30.24S
BRAINERD       PTCLDY    45  35  68 N3        30.14S
HIBBING        PTCLDY    38  29  70 CALM      30.13F
ALEXANDRIA     CLOUDY    50  41  71 NW8       30.18S
SAINT CLOUD    CLEAR     41  32  70 CALM      30.13F
MINNEAPOLIS    MOCLDY    46  38  73 SE6       30.15S
$$

  *****  WEATHER ACROSS SOUTH DAKOTA  *****

CITY           SKY/WX    TMP DP  RH WIND       PRES   REMARKS
SIOUX FALLS    CLEAR     41  30  65 CALM      30.20S
BROOKINGS      CLEAR     43  37  81 N5        30.21F
WATERTOWN      MOCLDY    45  40  82 NW9       30.22S
HURON          PTCLDY    48  42  80 N10       30.25S
SISSETON         N/A     49  44  83 N13       30.23S
ABERDEEN       LGT RAIN  48  44  86 N10       30.28R
MITCHELL       CLEAR     45  41  86 NW10      30.24S
PIERRE         CLOUDY    46  42  86 NW7       30.31S
MOBRIDGE       PTCLDY    39  37  92 N3        30.29S
RAPID CITY     CLEAR     34  32  92 CALM      30.34S
$$

  *****  SOME WEATHER IN NEARBY STATES *****

CITY           SKY/WX    TMP DP  RH WIND       PRES   REMARKS
GLASGOW MT     CLEAR     40  35  83 SE10      30.26F
GREAT FALLS MT CLEAR     43  32  65 S12       30.20S
CHEYENNE WY    CLOUDY    39  36  89 NE3       30.35F
SCOTTSBLUFF NE CLOUDY    45  41  86 N6        30.35F
OMAHA NE       MOCLDY    41  38  89 N6        30.18F
DES MOINES IA  PTCLDY    46  39  76 NW3       30.16S
DAVENPORT IA   CLEAR     40  34  79 CALM      30.12S
CHICAGO IL     CLEAR     37  33  85 CALM      30.13S
EAU CLAIRE WI  CLEAR     39  28  64 CALM      30.14S
LA CROSSE WI   CLEAR     44  40  85 CALM      30.14R
$$

  *****  SOME NATIONAL WEATHER *****

CITY           SKY/WX    TMP DP  RH WIND       PRES   REMARKS
LA GUARDIA NY  PTCLDY    51  39  63 NW10G20   29.72S
RALEIGH NC     CLEAR     41  35  79 CALM      29.93S
ATLANTA GA     CLOUDY    57  39  51 NE8       29.88S
NEW ORLEANS LA CLOUDY    65  62  90 NE14      29.74S
OKLAHOMA CITY  CLOUDY    50  45  83 N13       30.05S
ALBUQUERQUE NM PTCLDY    46  33  60 SE9       30.25S
SALT LAKE CITY CLEAR     48  39  71 SE7       30.24R
LOS ANGELES CA CLEAR     62  49  62 CALM      29.97R
BOISE ID       CLEAR     50  31  48 SE7       30.19F
SEATTLE WA     MOCLDY    56  51  84 CALM      29.93R
$$

*** WEATHER ACROSS MANITOBA...SASKATCHEWAN AND ONTARIO ***
                ***ONTARIO***

CITY           SKY/WX    TMP DP  RH WIND       PRES   REMARKS
GERALDTON      PTCLDY    28  25  86 NW3       30.12S
THUNDER BAY    CLEAR     30  28  93 NW2       30.14S
SIOUX LOOKOUT  LGT RAIN  45  41  87 NW8       30.17R
TORONTO        PTCLDY    41  34  75 N14       30.00F
BIG TROUT LK   CLOUDY    37  37 100 W7        30.09R
PICKLE LAKE    NOT AVBL
DRYDEN         LGT RAIN  45  41  87 N7        30.19R
KENORA         MOCLDY    41  39  93 N7        30.22S
$$
                *** MANITOBA***

CITY           SKY/WX    TMP DP  RH WIND       PRES   REMARKS
BRANDON        PTCLDY    28  25  86 W3        30.26S
DAUPHIN        CLEAR     30  28  93 SW3       30.25F
ISLAND LAKE    CLOUDY    36  30  80 W9        30.17S
PILOT MOUND      N/A     34  34 100 W5          N/A
THE PAS        CLEAR     30  28  93 SE7       30.19F WCI  23
THOMPSON       CLOUDY    34  30  86 NW3       30.20
WINNIPEG       CLEAR     32  30  93 NE7       30.28S
LYNN LAKE      CLOUDY    30  30 100 SW5       30.18S
CHURCHILL      FOG       27  27 100 N10       30.21S VSB 1   WCI  17
GILLAM         CLOUDY    30  28  93 SW5       30.16R FOG
$$
                ***SASKATCHEWAN***

CITY           SKY/WX    TMP DP  RH WIND       PRES   REMARKS
ESTEVAN        PTCLDY    39  36  87 S6        30.26F
KINDERSLEY     PTCLDY    39  28  65 S9        30.11S
LLOYDMINSTER   CLEAR     46  25  42 S9        30.07S
PRINCE ALBERT  MOCLDY    34  32  93 E6        30.12F
REGINA         PTCLDY    37  32  81 SE8       30.22
YORKTON        CLEAR     43  30  61 S9        30.23S
N. BATTLEFORD  CLEAR     39  28  65 SE5       30.11R
LA RONGE       PTCLDY    39  34  81 CALM      30.07F
SASKATOON      MOCLDY    41  34  75 S7        30.13F
SWIFT CURRENT  PTCLDY    45  30  57 SW18G25   30.16S
$$
NOTE: THESE ARE AUTOMATED STATIONS WITH LIMITED QUALITY CONTROL
      "FAIR" INDICATES FEW OR NO CLOUDS BELOW 12,000 FEET WITH NO
      SIGNIFICANT WEATHER AND/OR OBSTRUCTIONS TO VISIBILITY.
      SKY/WX - SKY CONDITION AND SIGNIFICANT WEATHER.
      TMP - AIR TEMPERATURE.    DP   - DEWPOINT TEMPERATURE.
      RH  - RELATIVE HUMIDITY.  PRES - PRESSURE.
      HX  - HEAT INDEX.         WCI  - WIND CHILL INDEX.
$



USA.gov is the U.S. government's official web portal to all federal, state and local government web resources and services.